Date,TemperatureHighF,TemperatureAvgF,TemperatureLowF,DewpointHighF,DewpointAvgF,DewpointLowF,HumidityHigh,HumidityAvg,HumidityLow,PressureMaxIn,PressureMinIn,WindSpeedMaxMPH,WindSpeedAvgMPH,GustSpeedMaxMPH,PrecipitationSumIn
2013-9-1,90.6,76.6,69.3,80.4,72.6,68.1,98,88,62,29.88,29.75,19,1,19,0.01
2013-9-2,88.6,77.3,68.9,77.9,72.7,68.3,99,87,62,29.87,29.77,9,0,9,0.03
2013-9-3,88.7,78.0,70.4,78.9,73.1,69.5,98,86,59,29.93,29.78,9,0,9,0.01
2013-9-4,87.2,74.9,66.9,75.0,68.0,63.5,96,80,60,30.07,29.93,9,1,9,0.02
2013-9-5,86.5,72.9,63.2,70.6,64.4,57.5,98,78,39,30.08,30.00,9,0,9,0.00
2013-9-6,82.1,70.9,61.9,66.6,62.2,56.6,95,75,51,30.16,30.06,10,1,10,0.00
2013-9-7,82.9,69.1,57.3,70.1,62.8,55.6,98,82,57,30.12,29.95,7,0,7,0.00
2013-9-8,87.4,72.8,61.4,74.8,65.4,60.2,98,80,44,29.97,29.88,10,0,10,0.00
2013-9-9,86.5,74.8,64.6,75.4,68.8,63.4,98,83,58,30.12,29.97,5,0,9,0.00
2013-9-10,90.3,76.4,65.6,76.0,70.0,64.1,98,82,53,30.21,30.11,8,0,8,0.00
2013-9-11,90.5,76.2,65.6,76.3,69.4,64.1,98,81,52,30.18,30.04,10,0,10,0.00
2013-9-12,89.3,76.7,68.1,76.2,71.0,65.6,95,84,61,30.05,29.78,8,1,8,0.00
2013-9-13,84.5,74.8,64.8,70.2,64.3,53.7,94,72,43,29.88,29.73,13,1,13,0.00
2013-9-14,76.5,65.0,55.8,61.2,54.3,49.6,92,70,47,30.13,29.87,12,1,12,0.00
2013-9-15,81.1,64.4,50.5,67.1,57.5,49.1,98,80,51,30.23,30.09,7,0,7,0.00
2013-9-16,85.5,72.3,61.8,71.6,64.5,59.9,98,79,48,30.17,30.02,13,1,13,0.00
2013-9-17,68.1,60.9,55.3,59.9,55.5,51.8,88,83,75,30.29,30.17,6,0,8,0.00
2013-9-18,74.2,59.9,49.2,58.9,51.8,46.0,97,77,43,30.30,30.16,9,0,9,0.00
2013-9-19,75.9,63.5,53.2,67.2,58.6,51.2,96,85,58,30.18,30.07,7,0,7,0.00
2013-9-20,71.3,66.6,62.5,68.1,64.7,61.2,97,94,87,30.08,29.94,4,0,4,0.00
2013-9-21,77.4,69.4,65.7,72.4,67.7,64.5,98,94,82,29.95,29.70,10,0,10,0.01
2013-9-22,77.8,67.8,58.2,64.7,61.8,56.1,97,83,54,29.88,29.69,12,1,12,0.03
2013-9-23,74.0,61.6,53.3,60.5,54.8,51.1,96,80,52,30.06,29.88,9,1,9,0.02
2013-9-24,77.4,62.3,52.3,66.1,57.1,50.6,97,84,57,30.09,29.93,7,0,7,0.02
2013-9-25,73.3,62.6,51.0,66.2,58.8,49.6,98,88,64,29.95,29.85,6,0,6,0.02
2013-9-26,75.7,65.0,56.5,62.8,58.7,54.5,97,82,49,30.03,29.86,9,1,9,0.02
2013-9-27,74.4,68.8,53.9,61.8,57.9,52.5,97,69,57,30.14,30.02,9,0,9,0.01
2013-9-28,71.9,71.9,71.9,58.6,58.6,58.6,63,63,63,30.09,30.09,0,0,0,0.00
2013-9-29,71.9,71.9,71.9,58.6,58.6,58.6,63,63,63,30.09,30.09,0,0,0,0.00
2013-9-30,71.9,71.9,71.9,58.6,58.6,58.6,63,63,63,30.09,30.09,0,0,0,0.00